Kalaeloa, HI

2:09 PM HST on May 28, 2017 (GMT -1000)
Kalaeloa (John Rodgers Field)

Weather History for PHJR - February, 2013

Change the Weather History Date:

Thursday, February 14, 2013

  Actual Average (PHHI) Record (PHHI)
Temperature  
Mean Temperature 70 °F -  
Max Temperature 79 °F 74 °F 80 °F (2016)
Min Temperature 62 °F 61 °F 58 °F (2007)
Cooling Degree Days 6    
Growing Degree Days 20 (Base 50)    
Moisture  
Dew Point 57 °F    
Average Humidity 62    
Maximum Humidity 75    
Minimum Humidity 47    
Precipitation  
Precipitation 0.00 in - - ()
Sea Level Pressure  
Sea Level Pressure 30.09 in    
Wind  
Wind Speed 3 mph (ENE)    
Max Wind Speed 8 mph    
Max Gust Speed 17 mph    
Visibility 10 miles    
Events Rain    
Averages and records for this station are not official NWS values.
T = Trace of Precipitation, MM = Missing Value Source: NWS Daily Summary

Daily Weather History Graph

Daily Weather History Graph

Search for Another Location

Airport or City:

Trip Planner

Search our weather history database for the weather conditions in past years. The results will help you decide how hot, cold, wet, or windy it might be!

Date:

Astronomy

Feb. 14, 2013 Rise Set
Actual Time 7:03 AM HST 6:30 PM HST
Civil Twilight 6:40 AM HST 6:52 PM HST
Nautical Twilight 6:14 AM HST 7:18 PM HST
Astronomical Twilight 5:48 AM HST 7:44 PM HST
Moon 9:54 AM HST (2/14) 10:56 PM HST (2/14)
Length of Visible Light 12h 12m
Length of Day
11h 26m
Waxing Crescent, 23% of the Moon is Illuminated
Feb 14
Waxing Crescent
Feb 17
First Quarter
Feb 25
Full
Mar 4
Last Quarter
Mar 11
New

Hourly Weather History & Observations

Time (HST) Temp. Dew Point Humidity Pressure Visibility Wind Dir Wind Speed Gust Speed Precip Events Conditions
12:53 AM 66.0 °F 57.0 °F 73% 30.12 in 10.0 mi Calm Calm - N/A   Partly Cloudy
1:53 AM 68.0 °F 57.9 °F 70% 30.11 in 10.0 mi Calm Calm - N/A   Overcast
2:53 AM 64.9 °F 57.0 °F 75% 30.09 in 10.0 mi NE 3.5 mph - N/A   Partly Cloudy
3:53 AM 64.9 °F 55.9 °F 73% 30.09 in 10.0 mi Calm Calm - N/A   Clear
4:53 AM 62.1 °F 54.0 °F 75% 30.09 in 10.0 mi North 3.5 mph - N/A   Scattered Clouds
5:53 AM 66.0 °F 54.0 °F 65% 30.10 in 10.0 mi Calm Calm - N/A   Mostly Cloudy
6:53 AM 64.9 °F 55.0 °F 70% 30.11 in 10.0 mi Calm Calm - N/A   Clear
7:53 AM 69.1 °F 55.9 °F 63% 30.13 in 10.0 mi Calm Calm - N/A   Overcast
8:53 AM 73.0 °F 57.9 °F 59% 30.14 in 10.0 mi East 4.6 mph - N/A   Clear
9:53 AM 75.0 °F 55.0 °F 50% 30.14 in 10.0 mi East 8.1 mph - N/A   Clear
10:53 AM 75.9 °F 55.0 °F 48% 30.13 in 10.0 mi ENE 6.9 mph - N/A   Partly Cloudy
11:53 AM 75.0 °F 57.0 °F 53% 30.11 in 10.0 mi ENE 5.8 mph - N/A   Overcast
12:53 PM 78.1 °F 57.0 °F 48% 30.08 in 10.0 mi Variable 5.8 mph - N/A   Mostly Cloudy
1:53 PM 77.0 °F 55.9 °F 48% 30.05 in 10.0 mi ENE 8.1 mph 17.3 mph N/A   Partly Cloudy
2:53 PM 79.0 °F 57.0 °F 47% 30.04 in 10.0 mi Variable 5.8 mph 16.1 mph N/A   Scattered Clouds
3:53 PM 78.1 °F 57.0 °F 48% 30.04 in 10.0 mi NNE 8.1 mph - N/A   Clear
4:53 PM 75.9 °F 57.0 °F 52% 30.04 in 10.0 mi Variable 6.9 mph - N/A   Partly Cloudy
5:53 PM 73.9 °F 57.9 °F 57% 30.06 in 10.0 mi Variable 6.9 mph - N/A   Clear
6:53 PM 70.0 °F 57.0 °F 63% 30.07 in 10.0 mi Variable 5.8 mph - N/A   Clear
7:53 PM 69.1 °F 57.9 °F 68% 30.07 in 10.0 mi NE 6.9 mph - N/A   Clear
8:53 PM 69.1 °F 57.9 °F 68% 30.09 in 10.0 mi ENE 5.8 mph - N/A   Scattered Clouds
9:53 PM 68.0 °F 57.9 °F 70% 30.10 in 10.0 mi Calm Calm - N/A   Mostly Cloudy
10:53 PM 69.1 °F 59.0 °F 70% 30.11 in 10.0 mi East 5.8 mph - 0.00 in Rain Light Rain
11:53 PM 68.0 °F 59.0 °F 73% 30.10 in 10.0 mi Calm Calm - 0.00 in   Mostly Cloudy